Time,TemperatureF,DewpointF,PressureIn,WindDirection,WindDirectionDegrees,WindSpeedMPH,WindSpeedGustMPH,Humidity,HourlyPrecipIn,Conditions,Clouds,dailyrainin,SoftwareType,DateUTC
2013-08-17 00:11:00,58.0,56.0,29.99,NNW,335,0.0,0.0,92,-99.99,,,-99.99,,2013-08-17 07:11:00,
2013-08-17 00:21:00,58.0,56.0,29.99,NNW,335,0.0,0.0,92,-99.99,,,-99.99,,2013-08-17 07:21:00,
2013-08-17 00:32:00,58.0,56.0,29.99,NNW,335,0.0,0.0,92,-99.99,,,-99.99,,2013-08-17 07:32:00,
2013-08-17 07:41:00,56.0,54.0,30.38,ESE,107,0.0,0.0,92,-99.99,,,-99.99,,2013-08-17 14:41:00,
2013-08-17 07:52:00,56.0,54.0,30.38,ESE,107,0.0,0.0,92,-99.99,,,-99.99,,2013-08-17 14:52:00,
2013-08-17 08:01:00,56.0,54.0,30.38,ESE,107,0.0,0.0,92,-99.99,,,-99.99,,2013-08-17 15:01:00,
2013-08-17 08:22:00,57.0,56.0,30.39,ESE,107,0.0,0.0,97,-99.99,,,-99.99,,2013-08-17 15:22:00,
2013-08-17 08:53:00,58.0,57.0,30.38,South,189,0.0,2.0,97,-99.99,,,-99.99,,2013-08-17 15:53:00,
2013-08-17 09:12:00,58.0,57.0,30.38,SSW,212,0.0,3.0,97,-99.99,,,-99.99,,2013-08-17 16:12:00,
2013-08-17 09:23:00,58.0,57.0,30.38,SSW,212,0.0,3.0,97,-99.99,,,-99.99,,2013-08-17 16:23:00,
2013-08-17 09:33:00,58.0,57.0,30.38,SSW,212,0.0,3.0,97,-99.99,,,-99.99,,2013-08-17 16:33:00,
2013-08-17 09:42:00,58.0,57.0,30.38,SSW,212,0.0,3.0,97,-99.99,,,-99.99,,2013-08-17 16:42:00,
2013-08-17 10:12:00,61.0,59.0,30.39,SW,229,1.0,8.0,94,-99.99,,,-99.99,,2013-08-17 17:12:00,
2013-08-17 10:23:00,61.0,59.0,30.39,SW,229,1.0,8.0,94,-99.99,,,-99.99,,2013-08-17 17:23:00,
2013-08-17 10:52:00,65.0,59.0,30.38,SSW,200,7.0,10.0,81,-99.99,,,-99.99,,2013-08-17 17:52:00,
2013-08-17 11:11:00,67.0,58.0,30.39,SW,220,12.0,12.0,74,-99.99,,,-99.99,,2013-08-17 18:11:00,
2013-08-17 11:21:00,67.0,58.0,30.39,SW,220,12.0,12.0,74,-99.99,,,-99.99,,2013-08-17 18:21:00,
2013-08-17 11:52:00,72.0,60.0,30.42,SW,234,3.0,8.0,66,-99.99,,,-99.99,,2013-08-17 18:52:00,
2013-08-17 12:11:00,72.0,60.0,30.41,SSW,212,3.0,8.0,65,-99.99,,,-99.99,,2013-08-17 19:11:00,
2013-08-17 12:21:00,72.0,60.0,30.41,SSW,212,5.0,7.0,65,-99.99,,,-99.99,,2013-08-17 19:21:00,
2013-08-17 12:52:00,75.0,60.0,30.40,WSW,243,2.0,10.0,59,-99.99,,,-99.99,,2013-08-17 19:52:00,
2013-08-17 13:02:00,75.0,60.0,30.40,WSW,243,2.0,10.0,59,-99.99,,,-99.99,,2013-08-17 20:02:00,
2013-08-17 13:21:00,73.0,58.0,30.40,SW,223,8.0,11.0,59,-99.99,,,-99.99,,2013-08-17 20:21:00,
2013-08-17 13:32:00,73.0,58.0,30.40,SW,223,8.0,11.0,59,-99.99,,,-99.99,,2013-08-17 20:32:00,
2013-08-17 13:51:00,71.0,58.0,30.36,SW,222,9.0,16.0,64,-99.99,,,-99.99,,2013-08-17 20:51:00,
2013-08-17 14:21:00,70.0,58.0,30.37,SW,220,7.0,11.0,65,-99.99,,,-99.99,,2013-08-17 21:21:00,
2013-08-17 14:53:00,68.0,57.0,30.35,SSW,212,7.0,8.0,68,-99.99,,,-99.99,,2013-08-17 21:53:00,
2013-08-17 15:12:00,67.0,57.0,30.35,SSW,209,8.0,10.0,71,-99.99,,,-99.99,,2013-08-17 22:12:00,
2013-08-17 15:22:00,67.0,57.0,30.35,SSW,209,8.0,10.0,71,-99.99,,,-99.99,,2013-08-17 22:22:00,
2013-08-17 15:32:00,67.0,57.0,30.35,SSW,209,8.0,10.0,71,-99.99,,,-99.99,,2013-08-17 22:32:00,
2013-08-17 16:22:00,67.0,58.0,30.34,SW,216,8.0,12.0,72,-99.99,,,-99.99,,2013-08-17 23:22:00,
2013-08-17 16:32:00,67.0,58.0,30.34,SW,216,8.0,12.0,72,-99.99,,,-99.99,,2013-08-17 23:32:00,
2013-08-17 16:42:00,67.0,58.0,30.34,SW,216,8.0,12.0,72,-99.99,,,-99.99,,2013-08-17 23:42:00,
2013-08-17 16:51:00,67.0,58.0,30.34,SW,216,8.0,12.0,72,-99.99,,,-99.99,,2013-08-17 23:51:00,
2013-08-17 17:21:00,71.0,59.0,30.31,SW,226,3.0,10.0,67,-99.99,,,-99.99,,2013-08-18 00:21:00,
2013-08-17 17:42:00,71.0,59.0,30.31,SE,143,1.0,10.0,66,-99.99,,,-99.99,,2013-08-18 00:42:00,
2013-08-17 17:52:00,70.0,59.0,30.31,SSW,203,10.0,13.0,69,-99.99,,,-99.99,,2013-08-18 00:52:00,
2013-08-17 18:11:00,68.0,59.0,30.31,SSE,147,8.0,12.0,72,-99.99,,,-99.99,,2013-08-18 01:11:00,
2013-08-17 19:52:00,65.0,59.0,30.34,South,169,3.0,8.0,81,-99.99,,,-99.99,,2013-08-18 02:52:00,
2013-08-17 20:21:00,61.0,57.0,29.93,ESE,121,2.0,6.0,88,-99.99,,,-99.99,,2013-08-18 03:21:00,
2013-08-17 20:53:00,61.0,58.0,29.92,SE,144,3.0,5.0,89,-99.99,,,-99.99,,2013-08-18 03:53:00,
2013-08-17 21:02:00,-999.0,-99.9,29.93,ESE,117,3.0,7.0,-999,-99.99,,,-99.99,,2013-08-18 04:02:00,
2013-08-17 21:23:00,60.0,58.0,29.93,ESE,114,1.0,5.0,92,-99.99,,,-99.99,,2013-08-18 04:23:00,
2013-08-17 21:32:00,60.0,58.0,29.93,ESE,114,1.0,5.0,92,-99.99,,,-99.99,,2013-08-18 04:32:00,
2013-08-17 21:53:00,60.0,58.0,29.93,ESE,114,1.0,5.0,92,-99.99,,,-99.99,,2013-08-18 04:53:00,
2013-08-17 22:12:00,59.0,57.0,29.94,SE,141,2.0,5.0,93,-99.99,,,-99.99,,2013-08-18 05:12:00,
2013-08-17 22:22:00,59.0,57.0,29.94,East,99,6.0,7.0,93,-99.99,,,-99.99,,2013-08-18 05:22:00,
2013-08-17 22:51:00,59.0,57.0,29.93,ESE,116,2.0,3.0,94,-99.99,,,-99.99,,2013-08-18 05:51:00,
2013-08-17 23:21:00,59.0,57.0,29.93,SSE,167,2.0,7.0,94,-99.99,,,-99.99,,2013-08-18 06:21:00,
2013-08-17 23:52:00,59.0,58.0,29.93,East,93,2.0,3.0,95,-99.99,,,-99.99,,2013-08-18 06:52:00,